Location: Terra Rouge Observatory
(46.0000°N, 62.7500°W)
Time: 12:08:02
(UTC-04:00)

NOSS 3-1 (A) - Visible Passes

Search period start: 31 January 2015 00:00
Search period end: 10 February 2015 00:00
Orbit: 889 x 1323 km, 63.4° (Epoch: 23 January)

Date Brightness Start Highest point End Pass type
(mag) Time Alt. Az. Time Alt. Az. Time Alt. Az.
31 Jan 5.9 03:09:28 17° NNE 03:09:28 17° NNE 03:12:38 10° NE visible
31 Jan 5.4 04:56:54 16° NNW 05:01:12 27° NNE 05:07:41 10° E visible
31 Jan 4.3 06:46:02 10° NW 06:53:27 72° NE 07:01:31 10° SE visible
01 Feb 6.2 02:26:09 13° NNE 02:26:09 13° NNE 02:27:16 10° NE visible
01 Feb 5.5 04:13:35 20° N 04:15:52 23° NNE 04:21:45 10° ENE visible
01 Feb 4.6 06:01:23 10° NW 06:08:33 53° NE 06:16:22 10° ESE visible
02 Feb 5.7 03:30:17 20° N 03:30:27 20° N 03:35:50 10° ENE visible
02 Feb 5.0 05:17:43 14° NNW 05:23:32 40° NE 05:30:55 10° ESE visible
03 Feb 6.0 02:47:00 17° NNE 02:47:00 17° NNE 02:50:02 10° NE visible
03 Feb 5.3 04:34:27 20° NNW 04:38:22 31° NNE 04:45:13 10° E visible
03 Feb 4.1 06:22:53 10° NW 06:30:21 87° NE 06:38:28 10° SE visible
04 Feb 6.3 02:03:45 12° NE 02:03:45 12° NE 02:04:29 10° NE visible
04 Feb 5.4 03:51:12 23° N 03:53:06 25° NNE 03:59:22 10° ENE visible
04 Feb 4.3 05:38:38 12° NW 05:45:32 64° NE 05:53:31 10° SE visible
05 Feb 5.7 03:07:59 22° NNE 03:07:59 22° NNE 03:13:25 10° ENE visible
05 Feb 4.7 04:55:26 19° NNW 05:00:35 47° NE 05:08:15 10° ESE visible
05 Feb 4.3 06:44:32 10° NW 06:51:51 54° WSW 06:59:39 10° SSE visible
06 Feb 6.1 02:24:48 17° NNE 02:24:48 17° NNE 02:27:31 10° NE visible
06 Feb 5.1 04:12:15 25° N 04:15:30 36° NNE 04:22:42 10° E visible
06 Feb 4.0 05:59:43 10° NW 06:07:12 77° SW 06:15:17 10° SSE visible
07 Feb 6.5 01:41:41 10° NE 01:41:41 10° NE 01:41:49 10° NE visible
07 Feb 5.3 03:29:09 28° NNE 03:30:18 29° NNE 03:36:56 10° E visible
07 Feb 4.1 05:16:36 18° NW 05:22:27 78° NE 05:30:33 10° SE visible
08 Feb 5.7 02:46:05 23° NNE 02:46:05 23° NNE 02:51:01 10° ENE visible
08 Feb 4.4 04:33:32 28° NNW 04:37:35 57° NE 04:45:28 10° ESE visible
08 Feb 4.4 06:21:31 10° NW 06:28:35 43° WSW 06:36:04 10° S visible
09 Feb 6.2 02:03:07 15° NE 02:03:07 15° NE 02:05:05 10° ENE visible
09 Feb 4.8 03:50:35 36° N 03:52:35 43° NE 04:00:05 10° ESE visible
09 Feb 4.0 05:38:03 17° NW 05:44:01 63° WSW 05:51:58 10° SSE visible
09 Feb 5.3 19:33:28 10° SSE 19:34:09 13° SSE 19:34:09 13° SSE visible
